TimeCST,TemperatureF,Dew PointF,Humidity,Sea Level PressureIn,VisibilityMPH,Wind Direction,Wind SpeedMPH,Gust SpeedMPH,PrecipitationIn,Events,Conditions,WindDirDegrees,DateUTC
12:53 AM,42.1,37.0,82,30.29,10.0,North,8.1,-,N/A,,Clear,350,2012-12-05 06:53:00
1:53 AM,41.0,36.0,82,30.30,10.0,North,5.8,-,N/A,,Clear,350,2012-12-05 07:53:00
2:53 AM,39.9,36.0,86,30.29,10.0,NW,3.5,-,N/A,,Clear,320,2012-12-05 08:53:00
3:53 AM,36.0,34.0,93,30.30,10.0,NW,3.5,-,N/A,,Clear,310,2012-12-05 09:53:00
4:53 AM,37.9,35.1,89,30.33,10.0,NW,5.8,-,N/A,,Clear,320,2012-12-05 10:53:00
5:53 AM,36.0,33.1,89,30.34,10.0,NW,3.5,-,N/A,,Clear,310,2012-12-05 11:53:00
6:53 AM,35.1,32.0,89,30.34,10.0,Calm,Calm,-,N/A,,Clear,0,2012-12-05 12:53:00
8:53 AM,46.9,37.9,71,30.36,10.0,NE,3.5,-,N/A,,Clear,50,2012-12-05 14:53:00
9:53 AM,51.1,39.9,66,30.35,10.0,NNE,9.2,-,N/A,,Clear,30,2012-12-05 15:53:00
10:53 AM,55.0,41.0,59,30.33,10.0,NE,9.2,-,N/A,,Clear,50,2012-12-05 16:53:00
11:53 AM,57.9,41.0,53,30.30,10.0,NE,8.1,-,N/A,,Clear,50,2012-12-05 17:53:00
12:53 PM,60.1,39.0,46,30.27,10.0,NE,6.9,-,N/A,,Clear,50,2012-12-05 18:53:00
1:53 PM,62.1,37.0,39,30.25,10.0,NE,8.1,-,N/A,,Clear,40,2012-12-05 19:53:00
2:53 PM,61.0,39.0,44,30.24,10.0,NE,6.9,-,N/A,,Clear,50,2012-12-05 20:53:00
3:53 PM,57.9,37.9,47,30.22,10.0,ENE,6.9,-,N/A,,Clear,70,2012-12-05 21:53:00
4:53 PM,55.0,39.0,55,30.21,10.0,ENE,3.5,-,N/A,,Clear,60,2012-12-05 22:53:00
5:53 PM,48.0,41.0,77,30.22,10.0,Calm,Calm,-,N/A,,Clear,0,2012-12-05 23:53:00
6:53 PM,46.9,39.9,77,30.21,10.0,NE,4.6,-,N/A,,Clear,40,2012-12-06 00:53:00
7:53 PM,48.0,37.0,66,30.19,10.0,NE,4.6,-,N/A,,Clear,50,2012-12-06 01:53:00
8:53 PM,44.1,37.0,76,30.19,10.0,Calm,Calm,-,N/A,,Clear,0,2012-12-06 02:53:00
9:53 PM,45.0,36.0,71,30.16,10.0,NE,5.8,-,N/A,,Clear,40,2012-12-06 03:53:00
10:53 PM,44.1,36.0,73,30.15,10.0,NE,5.8,-,N/A,,Clear,40,2012-12-06 04:53:00
11:53 PM,43.0,35.1,74,30.13,10.0,NE,4.6,-,N/A,,Clear,50,2012-12-06 05:53:00